Year,Month,Day,Hour,Minute,Value (Times are PST for temperature in C)
2005,08,24,00,00,13.80
2005,08,24,00,01,13.70
2005,08,24,00,02,13.70
2005,08,24,00,03,13.70
2005,08,24,00,04,13.70
2005,08,24,00,05,13.70
2005,08,24,00,06,13.70
2005,08,24,00,07,13.70
2005,08,24,00,08,13.60
2005,08,24,00,09,13.60
2005,08,24,00,10,13.60
2005,08,24,00,11,13.60
2005,08,24,00,12,13.60
2005,08,24,00,13,13.50
2005,08,24,00,14,13.50
2005,08,24,00,15,13.50
2005,08,24,00,16,13.40
2005,08,24,00,17,13.40
2005,08,24,00,18,13.30
2005,08,24,00,19,13.30
2005,08,24,00,20,13.30
2005,08,24,00,21,13.30
2005,08,24,00,22,13.30
2005,08,24,00,23,13.20
2005,08,24,00,24,13.20
2005,08,24,00,25,13.10
2005,08,24,00,26,13.10
2005,08,24,00,27,13.10
2005,08,24,00,28,13.00
2005,08,24,00,29,13.00
2005,08,24,00,30,13.00
2005,08,24,00,31,12.90
2005,08,24,00,32,12.90
2005,08,24,00,33,12.90
2005,08,24,00,34,12.80
2005,08,24,00,35,12.80
2005,08,24,00,36,12.80
2005,08,24,00,37,12.80
2005,08,24,00,38,12.80
2005,08,24,00,39,12.80
2005,08,24,00,40,12.80
2005,08,24,00,41,12.80
2005,08,24,00,42,12.80
2005,08,24,00,43,12.80
2005,08,24,00,44,12.70
2005,08,24,00,45,12.70
2005,08,24,00,46,12.70
2005,08,24,00,47,12.60
2005,08,24,00,48,12.60
2005,08,24,00,49,12.60
2005,08,24,00,50,12.60
2005,08,24,00,51,12.50
2005,08,24,00,52,12.50
2005,08,24,00,53,12.50
2005,08,24,00,54,12.50
2005,08,24,00,55,12.50
2005,08,24,00,56,12.40
2005,08,24,00,57,12.40
2005,08,24,00,58,12.40
2005,08,24,00,59,12.40
2005,08,24,01,00,12.40
2005,08,24,01,01,12.30
2005,08,24,01,02,12.30
2005,08,24,01,03,12.30
2005,08,24,01,04,12.30
2005,08,24,01,05,12.30
2005,08,24,01,06,12.30
2005,08,24,01,07,12.30
2005,08,24,01,08,12.20
2005,08,24,01,09,12.20
2005,08,24,01,10,12.20
2005,08,24,01,11,12.20
2005,08,24,01,12,12.20
2005,08,24,01,13,12.10
2005,08,24,01,14,12.10
2005,08,24,01,15,12.10
2005,08,24,01,16,12.10
2005,08,24,01,17,12.10
2005,08,24,01,18,12.00
2005,08,24,01,19,12.00
2005,08,24,01,20,12.00
2005,08,24,01,21,12.00
2005,08,24,01,22,12.00
2005,08,24,01,23,12.00
2005,08,24,01,24,11.90
2005,08,24,01,25,11.90
2005,08,24,01,26,11.90
2005,08,24,01,27,11.80
2005,08,24,01,28,11.80
2005,08,24,01,29,11.80
2005,08,24,01,30,11.80
2005,08,24,01,31,11.80
2005,08,24,01,32,11.80
2005,08,24,01,33,11.80
2005,08,24,01,34,11.80
2005,08,24,01,35,11.80
2005,08,24,01,36,11.80
2005,08,24,01,37,11.80
2005,08,24,01,38,11.80
2005,08,24,01,39,11.70
2005,08,24,01,40,11.70
2005,08,24,01,41,11.70
2005,08,24,01,42,11.70
2005,08,24,01,43,11.70
2005,08,24,01,44,11.70
2005,08,24,01,45,11.70
2005,08,24,01,46,11.70
2005,08,24,01,47,11.70
2005,08,24,01,48,11.70
2005,08,24,01,49,11.70
2005,08,24,01,50,11.70
2005,08,24,01,51,11.70
2005,08,24,01,52,11.70
2005,08,24,01,53,11.70
2005,08,24,01,54,11.70
2005,08,24,01,55,11.60
2005,08,24,01,56,11.60
2005,08,24,01,57,11.60
2005,08,24,01,58,11.60
2005,08,24,01,59,11.60
2005,08,24,02,00,11.60
2005,08,24,02,01,11.60
2005,08,24,02,02,11.60
2005,08,24,02,03,11.60
2005,08,24,02,04,11.60
2005,08,24,02,05,11.60
2005,08,24,02,06,11.60
2005,08,24,02,07,11.50
2005,08,24,02,08,11.40
2005,08,24,02,09,11.40
2005,08,24,02,10,11.40
2005,08,24,02,11,11.40
2005,08,24,02,12,11.40
2005,08,24,02,13,11.40
2005,08,24,02,14,11.40
2005,08,24,02,15,11.40
2005,08,24,02,16,11.40
2005,08,24,02,17,11.30
2005,08,24,02,18,11.30
2005,08,24,02,19,11.30
2005,08,24,02,20,11.30
2005,08,24,02,21,11.30
2005,08,24,02,22,11.30
2005,08,24,02,23,11.20
2005,08,24,02,24,11.20
2005,08,24,02,25,11.20
2005,08,24,02,26,11.20
2005,08,24,02,27,11.20
2005,08,24,02,28,11.10
2005,08,24,02,29,11.10
2005,08,24,02,30,11.10
2005,08,24,02,31,11.10
2005,08,24,02,32,11.10
2005,08,24,02,33,11.10
2005,08,24,02,34,11.10
2005,08,24,02,35,11.10
2005,08,24,02,36,11.10
2005,08,24,02,37,11.10
2005,08,24,02,38,11.10
2005,08,24,02,39,11.10
2005,08,24,02,40,11.10
2005,08,24,02,41,11.10
2005,08,24,02,42,11.10
2005,08,24,02,43,11.10
2005,08,24,02,44,11.10
2005,08,24,02,45,11.10
2005,08,24,02,46,11.10
2005,08,24,02,47,11.00
2005,08,24,02,48,10.90
2005,08,24,02,49,10.90
2005,08,24,02,50,10.90
2005,08,24,02,51,10.90
2005,08,24,02,52,10.90
2005,08,24,02,53,10.90
2005,08,24,02,54,10.90
2005,08,24,02,55,10.90
2005,08,24,02,56,10.90
2005,08,24,02,57,10.90
2005,08,24,02,58,10.90
2005,08,24,02,59,10.90
2005,08,24,03,00,10.90
2005,08,24,03,01,10.80
2005,08,24,03,02,10.80
2005,08,24,03,03,10.80
2005,08,24,03,04,10.80
2005,08,24,03,05,10.80
2005,08,24,03,06,10.80
2005,08,24,03,07,10.80
2005,08,24,03,08,10.80
2005,08,24,03,09,10.80
2005,08,24,03,10,10.80
2005,08,24,03,11,10.80
2005,08,24,03,12,10.80
2005,08,24,03,13,10.80
2005,08,24,03,14,10.80
2005,08,24,03,15,10.80
2005,08,24,03,16,10.80
2005,08,24,03,17,10.80
2005,08,24,03,18,10.80
2005,08,24,03,19,10.80
2005,08,24,03,20,10.70
2005,08,24,03,21,10.70
2005,08,24,03,22,10.70
2005,08,24,03,23,10.70
2005,08,24,03,24,10.70
2005,08,24,03,25,10.70
2005,08,24,03,26,10.70
2005,08,24,03,27,10.70
2005,08,24,03,28,10.70
2005,08,24,03,29,10.70
2005,08,24,03,30,10.70
2005,08,24,03,31,10.70
2005,08,24,03,32,10.70
2005,08,24,03,33,10.70
2005,08,24,03,34,10.70
2005,08,24,03,35,10.70
2005,08,24,03,36,10.70
2005,08,24,03,37,10.60
2005,08,24,03,38,10.60
2005,08,24,03,39,10.60
2005,08,24,03,40,10.60
2005,08,24,03,41,10.60
2005,08,24,03,42,10.60
2005,08,24,03,43,10.60
2005,08,24,03,44,10.60
2005,08,24,03,45,10.60
2005,08,24,03,46,10.60
2005,08,24,03,47,10.60
2005,08,24,03,48,10.60
2005,08,24,03,49,10.60
2005,08,24,03,50,10.60
2005,08,24,03,51,10.60
2005,08,24,03,52,10.60
2005,08,24,03,53,10.60
2005,08,24,03,54,10.60
2005,08,24,03,55,10.60
2005,08,24,03,56,10.60
2005,08,24,03,57,10.60
2005,08,24,03,58,10.60
2005,08,24,03,59,10.60
2005,08,24,04,00,10.60
2005,08,24,04,01,10.60
2005,08,24,04,02,10.60
2005,08,24,04,03,10.60
2005,08,24,04,04,10.60
2005,08,24,04,05,10.60
2005,08,24,04,06,10.60
2005,08,24,04,07,10.60
2005,08,24,04,08,10.60
2005,08,24,04,09,10.60
2005,08,24,04,10,10.70
2005,08,24,04,11,10.70
2005,08,24,04,12,10.80
2005,08,24,04,13,10.80
2005,08,24,04,14,10.80
2005,08,24,04,15,10.80
2005,08,24,04,16,10.80
2005,08,24,04,17,10.80
2005,08,24,04,18,10.80
2005,08,24,04,19,10.70
2005,08,24,04,20,10.70
2005,08,24,04,21,10.70
2005,08,24,04,22,10.70
2005,08,24,04,23,10.70
2005,08,24,04,24,10.70
2005,08,24,04,25,10.70
2005,08,24,04,26,10.70
2005,08,24,04,27,10.60
2005,08,24,04,28,10.60
2005,08,24,04,29,10.60
2005,08,24,04,30,10.60
2005,08,24,04,31,10.60
2005,08,24,04,32,10.70
2005,08,24,04,33,10.70
2005,08,24,04,34,10.80
2005,08,24,04,35,10.80
2005,08,24,04,36,10.80
2005,08,24,04,37,10.80
2005,08,24,04,38,10.90
2005,08,24,04,39,10.90
2005,08,24,04,40,10.90
2005,08,24,04,41,10.90
2005,08,24,04,42,10.90
2005,08,24,04,43,10.90
2005,08,24,04,44,10.90
2005,08,24,04,45,10.90
2005,08,24,04,46,10.90
2005,08,24,04,47,10.90
2005,08,24,04,48,10.90
2005,08,24,04,49,10.90
2005,08,24,04,50,10.90
2005,08,24,04,51,10.90
2005,08,24,04,52,10.90
2005,08,24,04,53,10.90
2005,08,24,04,54,10.90
2005,08,24,04,55,10.90
2005,08,24,04,56,10.90
2005,08,24,04,57,10.90
2005,08,24,04,58,10.90
2005,08,24,04,59,10.90
2005,08,24,05,00,10.90
2005,08,24,05,01,10.90
2005,08,24,05,02,10.80
2005,08,24,05,03,10.80
2005,08,24,05,04,10.80
2005,08,24,05,05,10.80
2005,08,24,05,06,10.80
2005,08,24,05,07,10.80
2005,08,24,05,08,10.80
2005,08,24,05,09,10.80
2005,08,24,05,10,10.80
2005,08,24,05,11,10.80
2005,08,24,05,12,10.80
2005,08,24,05,13,10.80
2005,08,24,05,14,10.80
2005,08,24,05,15,10.80
2005,08,24,05,16,10.80
2005,08,24,05,17,10.80
2005,08,24,05,18,10.80
2005,08,24,05,19,10.80
2005,08,24,05,20,10.70
2005,08,24,05,21,10.70
2005,08,24,05,22,10.70
2005,08,24,05,23,10.70
2005,08,24,05,24,10.70
2005,08,24,05,25,10.70
2005,08,24,05,26,10.70
2005,08,24,05,27,10.70
2005,08,24,05,28,10.70
2005,08,24,05,29,10.70
2005,08,24,05,30,10.70
2005,08,24,05,31,10.70
2005,08,24,05,32,10.70
2005,08,24,05,33,10.70
2005,08,24,05,34,10.70
2005,08,24,05,35,10.70
2005,08,24,05,36,10.70
2005,08,24,05,37,10.60
2005,08,24,05,38,10.60
2005,08,24,05,39,10.60
2005,08,24,05,40,10.60
2005,08,24,05,41,10.60
2005,08,24,05,42,10.60
2005,08,24,05,43,10.60
2005,08,24,05,44,10.60
2005,08,24,05,45,10.60
2005,08,24,05,46,10.60
2005,08,24,05,47,10.60
2005,08,24,05,48,10.60
2005,08,24,05,49,10.60
2005,08,24,05,50,10.60
2005,08,24,05,51,10.60
2005,08,24,05,52,10.70
2005,08,24,05,53,10.70
2005,08,24,05,54,10.70
2005,08,24,05,55,10.70
2005,08,24,05,56,10.70
2005,08,24,05,57,10.70
2005,08,24,05,58,10.70
2005,08,24,05,59,10.70
2005,08,24,06,00,10.70
2005,08,24,06,01,10.70
2005,08,24,06,02,10.70
2005,08,24,06,03,10.70
2005,08,24,06,04,10.70
2005,08,24,06,05,10.70
2005,08,24,06,06,10.70
2005,08,24,06,07,10.80
2005,08,24,06,08,10.80
2005,08,24,06,09,10.80
2005,08,24,06,10,10.80
2005,08,24,06,11,10.80
2005,08,24,06,12,10.70
2005,08,24,06,13,10.70
2005,08,24,06,14,10.70
2005,08,24,06,15,10.70
2005,08,24,06,16,10.70
2005,08,24,06,17,10.70
2005,08,24,06,18,10.70
2005,08,24,06,19,10.70
2005,08,24,06,20,10.70
2005,08,24,06,21,10.70
2005,08,24,06,22,10.60
2005,08,24,06,23,10.60
2005,08,24,06,24,10.60
2005,08,24,06,25,10.60
2005,08,24,06,26,10.60
2005,08,24,06,27,10.60
2005,08,24,06,28,10.60
2005,08,24,06,29,10.60
2005,08,24,06,30,10.60
2005,08,24,06,31,10.60
2005,08,24,06,32,10.60
2005,08,24,06,33,10.60
2005,08,24,06,34,10.60
2005,08,24,06,35,10.60
2005,08,24,06,36,10.60
2005,08,24,06,37,10.60
2005,08,24,06,38,10.60
2005,08,24,06,39,10.40
2005,08,24,06,40,10.40
2005,08,24,06,41,10.40
2005,08,24,06,42,10.50
2005,08,24,06,43,10.60
2005,08,24,06,44,10.60
2005,08,24,06,45,10.60
2005,08,24,06,46,10.60
2005,08,24,06,47,10.60
2005,08,24,06,48,10.60
2005,08,24,06,49,10.60
2005,08,24,06,50,10.60
2005,08,24,06,51,10.60
2005,08,24,06,52,10.60
2005,08,24,06,53,10.60
2005,08,24,06,54,10.60
2005,08,24,06,55,10.60
2005,08,24,06,56,10.60
2005,08,24,06,57,10.60
2005,08,24,06,58,10.60
2005,08,24,06,59,10.60
2005,08,24,07,00,10.60
2005,08,24,07,01,10.60
2005,08,24,07,02,10.60
2005,08,24,07,03,10.60
2005,08,24,07,04,10.60
2005,08,24,07,05,10.60
2005,08,24,07,06,10.60
2005,08,24,07,07,10.60
2005,08,24,07,08,10.60
2005,08,24,07,09,10.60
2005,08,24,07,10,10.60
2005,08,24,07,11,10.60
2005,08,24,07,12,10.60
2005,08,24,07,13,10.60
2005,08,24,07,14,10.60
2005,08,24,07,15,10.60
2005,08,24,07,16,10.60
2005,08,24,07,17,10.60
2005,08,24,07,18,10.60
2005,08,24,07,19,10.60
2005,08,24,07,20,10.60
2005,08,24,07,21,10.60
2005,08,24,07,22,10.60
2005,08,24,07,23,10.60
2005,08,24,07,24,10.60
2005,08,24,07,25,10.60
2005,08,24,07,26,10.60
2005,08,24,07,27,10.60
2005,08,24,07,28,10.60
2005,08,24,07,29,10.60
2005,08,24,07,30,10.60
2005,08,24,07,31,10.60
2005,08,24,07,32,10.60
2005,08,24,07,33,10.70
2005,08,24,07,34,10.70
2005,08,24,07,35,10.70
2005,08,24,07,36,10.70
2005,08,24,07,37,10.80
2005,08,24,07,38,10.80
2005,08,24,07,39,10.80
2005,08,24,07,40,10.90
2005,08,24,07,41,10.90
2005,08,24,07,42,10.90
2005,08,24,07,43,10.90
2005,08,24,07,44,10.90
2005,08,24,07,45,10.90
2005,08,24,07,46,11.00
2005,08,24,07,47,11.10
2005,08,24,07,48,11.10
2005,08,24,07,49,11.10
2005,08,24,07,50,11.10
2005,08,24,07,51,11.10
2005,08,24,07,52,11.20
2005,08,24,07,53,11.20
2005,08,24,07,54,11.20
2005,08,24,07,55,11.20
2005,08,24,07,56,11.20
2005,08,24,07,57,11.30
2005,08,24,07,58,11.30
2005,08,24,07,59,11.40
2005,08,24,08,00,11.40
2005,08,24,08,01,11.40
2005,08,24,08,02,11.40
2005,08,24,08,03,11.60
2005,08,24,08,04,11.60
2005,08,24,08,05,11.60
2005,08,24,08,06,11.70
2005,08,24,08,07,11.70
2005,08,24,08,08,11.80
2005,08,24,08,09,11.90
2005,08,24,08,10,12.00
2005,08,24,08,11,12.10
2005,08,24,08,12,12.20
2005,08,24,08,13,12.30
2005,08,24,08,14,12.40
2005,08,24,08,15,12.50
2005,08,24,08,16,12.60
2005,08,24,08,17,12.80
2005,08,24,08,18,13.00
2005,08,24,08,19,13.20
2005,08,24,08,20,13.30
2005,08,24,08,21,13.50
2005,08,24,08,22,13.70
2005,08,24,08,23,13.80
2005,08,24,08,24,13.90
2005,08,24,08,25,14.00
2005,08,24,08,26,14.20
2005,08,24,08,27,14.40
2005,08,24,08,28,14.50
2005,08,24,08,29,14.60
2005,08,24,08,30,14.70
2005,08,24,08,31,14.80
2005,08,24,08,32,14.80
2005,08,24,08,33,14.90
2005,08,24,08,34,15.00
2005,08,24,08,35,15.00
2005,08,24,08,36,15.00
2005,08,24,08,37,15.10
2005,08,24,08,38,15.10
2005,08,24,08,39,15.10
2005,08,24,08,40,15.10
2005,08,24,08,41,15.20
2005,08,24,08,42,15.20
2005,08,24,08,43,15.20
2005,08,24,08,44,15.30
2005,08,24,08,45,15.30
2005,08,24,08,46,15.30
2005,08,24,08,47,15.30
2005,08,24,08,48,15.30
2005,08,24,08,49,15.40
2005,08,24,08,50,15.40
2005,08,24,08,51,15.50
2005,08,24,08,52,15.50
2005,08,24,08,53,15.60
2005,08,24,08,54,15.60
2005,08,24,08,55,15.70
2005,08,24,08,56,15.70
2005,08,24,08,57,15.80
2005,08,24,08,58,15.80
2005,08,24,08,59,15.90
2005,08,24,09,00,16.00
2005,08,24,09,01,16.10
2005,08,24,09,02,16.10
2005,08,24,09,03,16.10
2005,08,24,09,04,16.20
2005,08,24,09,05,16.20
2005,08,24,09,06,16.20
2005,08,24,09,07,16.30
2005,08,24,09,08,16.30
2005,08,24,09,09,16.30
2005,08,24,09,10,16.30
2005,08,24,09,11,16.40
2005,08,24,09,12,16.40
2005,08,24,09,13,16.40
2005,08,24,09,14,16.40
2005,08,24,09,15,16.50
2005,08,24,09,16,16.60
2005,08,24,09,17,16.60
2005,08,24,09,18,16.60
2005,08,24,09,19,16.60
2005,08,24,09,20,16.70
2005,08,24,09,21,16.70
2005,08,24,09,22,16.70
2005,08,24,09,23,16.70
2005,08,24,09,24,16.70
2005,08,24,09,25,16.70
2005,08,24,09,26,16.70
2005,08,24,09,27,16.70
2005,08,24,09,28,16.70
2005,08,24,09,29,16.80
2005,08,24,09,30,16.80
2005,08,24,09,31,16.80
2005,08,24,09,32,16.90
2005,08,24,09,33,16.90
2005,08,24,09,34,16.90
2005,08,24,09,35,16.90
2005,08,24,09,36,17.00
2005,08,24,09,37,17.00
2005,08,24,09,38,17.10
2005,08,24,09,39,17.10
2005,08,24,09,40,17.20
2005,08,24,09,41,17.20
2005,08,24,09,42,17.30
2005,08,24,09,43,17.30
2005,08,24,09,44,17.30
2005,08,24,09,45,17.30
2005,08,24,09,46,17.30
2005,08,24,09,47,17.30
2005,08,24,09,48,17.30
2005,08,24,09,49,17.30
2005,08,24,09,50,17.30
2005,08,24,09,51,17.30
2005,08,24,09,52,17.30
2005,08,24,09,53,17.30
2005,08,24,09,54,17.30
2005,08,24,09,55,17.30
2005,08,24,09,56,17.30
2005,08,24,09,57,17.30
2005,08,24,09,58,17.30
2005,08,24,09,59,17.30
2005,08,24,10,00,17.30
2005,08,24,10,01,17.30
2005,08,24,10,02,17.30
2005,08,24,10,03,17.30
2005,08,24,10,04,17.30
2005,08,24,10,05,17.40
2005,08,24,10,06,17.50
2005,08,24,10,07,17.50
2005,08,24,10,08,17.50
2005,08,24,10,09,17.60
2005,08,24,10,10,17.60
2005,08,24,10,11,17.60
2005,08,24,10,12,17.60
2005,08,24,10,13,17.60
2005,08,24,10,14,17.70
2005,08,24,10,15,17.70
2005,08,24,10,16,17.70
2005,08,24,10,17,17.70
2005,08,24,10,18,17.80
2005,08,24,10,19,17.80
2005,08,24,10,20,17.90
2005,08,24,10,21,17.90
2005,08,24,10,22,18.00
2005,08,24,10,23,18.10
2005,08,24,10,24,18.10
2005,08,24,10,25,18.20
2005,08,24,10,26,18.20
2005,08,24,10,27,18.10
2005,08,24,10,28,18.10
2005,08,24,10,29,18.00
2005,08,24,10,30,18.00
2005,08,24,10,31,17.90
2005,08,24,10,32,17.90
2005,08,24,10,33,17.90
2005,08,24,10,34,18.00
2005,08,24,10,35,18.10
2005,08,24,10,36,18.10
2005,08,24,10,37,18.20
2005,08,24,10,38,18.20
2005,08,24,10,39,18.20
2005,08,24,10,40,18.20
2005,08,24,10,41,18.30
2005,08,24,10,42,18.40
2005,08,24,10,43,18.40
2005,08,24,10,44,18.50
2005,08,24,10,45,18.50
2005,08,24,10,46,18.40
2005,08,24,10,47,18.40
2005,08,24,10,48,18.40
2005,08,24,10,49,18.40
2005,08,24,10,50,18.40
2005,08,24,10,51,18.30
2005,08,24,10,52,18.30
2005,08,24,10,53,18.30
2005,08,24,10,54,18.30
2005,08,24,10,55,18.30
2005,08,24,10,56,18.30
2005,08,24,10,57,18.40
2005,08,24,10,58,18.40
2005,08,24,10,59,18.50
2005,08,24,11,00,18.60
2005,08,24,11,01,18.60
2005,08,24,11,02,18.70
2005,08,24,11,03,18.80
2005,08,24,11,04,18.70
2005,08,24,11,05,18.70
2005,08,24,11,06,18.70
2005,08,24,11,07,18.70
2005,08,24,11,08,18.70
2005,08,24,11,09,18.80
2005,08,24,11,10,18.90
2005,08,24,11,11,18.90
2005,08,24,11,12,19.00
2005,08,24,11,13,19.10
2005,08,24,11,14,19.00
2005,08,24,11,15,18.90
2005,08,24,11,16,18.90
2005,08,24,11,17,18.80
2005,08,24,11,18,18.80
2005,08,24,11,19,18.70
2005,08,24,11,20,18.70
2005,08,24,11,21,18.70
2005,08,24,11,22,18.80
2005,08,24,11,23,18.90
2005,08,24,11,24,18.90
2005,08,24,11,25,18.90
2005,08,24,11,26,18.90
2005,08,24,11,27,19.00
2005,08,24,11,28,19.10
2005,08,24,11,29,19.20
2005,08,24,11,30,19.20
2005,08,24,11,31,19.20
2005,08,24,11,32,19.30
2005,08,24,11,33,19.30
2005,08,24,11,34,19.40
2005,08,24,11,35,19.40
2005,08,24,11,36,19.50
2005,08,24,11,37,19.50
2005,08,24,11,38,19.50
2005,08,24,11,39,19.50
2005,08,24,11,40,19.50
2005,08,24,11,41,19.60
2005,08,24,11,42,19.60
2005,08,24,11,43,19.60
2005,08,24,11,44,19.70
2005,08,24,11,45,19.60
2005,08,24,11,46,19.60
2005,08,24,11,47,19.50
2005,08,24,11,48,19.40
2005,08,24,11,49,19.40
2005,08,24,11,50,19.50
2005,08,24,11,51,19.50
2005,08,24,11,52,19.50
2005,08,24,11,53,19.50
2005,08,24,11,54,19.50
2005,08,24,11,55,19.50
2005,08,24,11,56,19.50
2005,08,24,11,57,19.60
2005,08,24,11,58,19.60
2005,08,24,11,59,19.70
2005,08,24,12,00,19.70
2005,08,24,12,01,19.70
2005,08,24,12,02,19.80
2005,08,24,12,03,19.80
2005,08,24,12,04,19.90
2005,08,24,12,05,19.90
2005,08,24,12,06,19.90
2005,08,24,12,07,20.00
2005,08,24,12,08,20.10
2005,08,24,12,09,20.10
2005,08,24,12,10,20.10
2005,08,24,12,11,20.10
2005,08,24,12,12,20.00
2005,08,24,12,13,19.90
2005,08,24,12,14,19.90
2005,08,24,12,15,19.90
2005,08,24,12,16,19.90
2005,08,24,12,17,19.90
2005,08,24,12,18,19.90
2005,08,24,12,19,19.90
2005,08,24,12,20,19.90
2005,08,24,12,21,19.90
2005,08,24,12,22,19.90
2005,08,24,12,23,19.90
2005,08,24,12,24,19.90
2005,08,24,12,25,19.90
2005,08,24,12,26,20.00
2005,08,24,12,27,20.10
2005,08,24,12,28,20.10
2005,08,24,12,29,20.10
2005,08,24,12,30,20.10
2005,08,24,12,31,20.10
2005,08,24,12,32,20.10
2005,08,24,12,33,20.20
2005,08,24,12,34,20.20
2005,08,24,12,35,20.20
2005,08,24,12,36,20.20
2005,08,24,12,37,20.20
2005,08,24,12,38,20.20
2005,08,24,12,39,20.20
2005,08,24,12,40,20.20
2005,08,24,12,41,20.30
2005,08,24,12,42,20.30
2005,08,24,12,43,20.40
2005,08,24,12,44,20.50
2005,08,24,12,45,20.60
2005,08,24,12,46,20.60
2005,08,24,12,47,20.70
2005,08,24,12,48,20.70
2005,08,24,12,49,20.70
2005,08,24,12,50,20.70
2005,08,24,12,51,20.80
2005,08,24,12,52,20.80
2005,08,24,12,53,20.90
2005,08,24,12,54,20.90
2005,08,24,12,55,20.90
2005,08,24,12,56,21.00
2005,08,24,12,57,21.10
2005,08,24,12,58,21.10
2005,08,24,12,59,21.20
2005,08,24,13,00,21.10
2005,08,24,13,01,21.00
2005,08,24,13,02,21.00
2005,08,24,13,03,21.10
2005,08,24,13,04,21.10
2005,08,24,13,05,21.10
2005,08,24,13,06,21.10
2005,08,24,13,07,21.20
2005,08,24,13,08,21.20
2005,08,24,13,09,21.20
2005,08,24,13,10,21.20
2005,08,24,13,11,21.20
2005,08,24,13,12,21.20
2005,08,24,13,13,21.30
2005,08,24,13,14,21.30
2005,08,24,13,15,21.30
2005,08,24,13,16,21.30
2005,08,24,13,17,21.30
2005,08,24,13,18,21.30
2005,08,24,13,19,21.30
2005,08,24,13,20,21.40
2005,08,24,13,21,21.40
2005,08,24,13,22,21.40
2005,08,24,13,23,21.50
2005,08,24,13,24,21.60
2005,08,24,13,25,21.60
2005,08,24,13,26,21.80
2005,08,24,13,27,21.90
2005,08,24,13,28,21.90
2005,08,24,13,29,21.90
2005,08,24,13,30,21.70
2005,08,24,13,31,21.60
2005,08,24,13,32,21.60
2005,08,24,13,33,21.60
2005,08,24,13,34,21.60
2005,08,24,13,35,21.60
2005,08,24,13,36,21.60
2005,08,24,13,37,21.60
2005,08,24,13,38,21.60
2005,08,24,13,39,21.70
2005,08,24,13,40,21.80
2005,08,24,13,41,21.80
2005,08,24,13,42,21.80
2005,08,24,13,43,21.90
2005,08,24,13,44,22.00
2005,08,24,13,45,22.00
2005,08,24,13,46,22.10
2005,08,24,13,47,22.10
2005,08,24,13,48,22.10
2005,08,24,13,49,22.00
2005,08,24,13,50,21.90
2005,08,24,13,51,21.90
2005,08,24,13,52,21.80
2005,08,24,13,53,21.80
2005,08,24,13,54,21.80
2005,08,24,13,55,21.80
2005,08,24,13,56,21.80
2005,08,24,13,57,21.80
2005,08,24,13,58,21.90
2005,08,24,13,59,22.00
2005,08,24,14,00,22.00
2005,08,24,14,01,22.10
2005,08,24,14,02,22.20
2005,08,24,14,03,22.30
2005,08,24,14,04,22.40
2005,08,24,14,05,22.40
2005,08,24,14,06,22.40
2005,08,24,14,07,22.30
2005,08,24,14,08,22.30
2005,08,24,14,09,22.30
2005,08,24,14,10,22.30
2005,08,24,14,11,22.20
2005,08,24,14,12,22.20
2005,08,24,14,13,22.20
2005,08,24,14,14,22.20
2005,08,24,14,15,22.20
2005,08,24,14,16,22.20
2005,08,24,14,17,22.30
2005,08,24,14,18,22.30
2005,08,24,14,19,22.30
2005,08,24,14,20,22.30
2005,08,24,14,21,22.40
2005,08,24,14,22,22.40
2005,08,24,14,23,22.40
2005,08,24,14,24,22.40
2005,08,24,14,25,22.40
2005,08,24,14,26,22.40
2005,08,24,14,27,22.50
2005,08,24,14,28,22.60
2005,08,24,14,29,22.70
2005,08,24,14,30,22.90
2005,08,24,14,31,23.00
2005,08,24,14,32,23.00
2005,08,24,14,33,22.90
2005,08,24,14,34,22.90
2005,08,24,14,35,22.80
2005,08,24,14,36,22.60
2005,08,24,14,37,22.60
2005,08,24,14,38,22.60
2005,08,24,14,39,22.60
2005,08,24,14,40,22.60
2005,08,24,14,41,22.60
2005,08,24,14,42,22.60
2005,08,24,14,43,22.70
2005,08,24,14,44,22.70
2005,08,24,14,45,22.70
2005,08,24,14,46,22.70
2005,08,24,14,47,22.70
2005,08,24,14,48,22.80
2005,08,24,14,49,22.80
2005,08,24,14,50,22.90
2005,08,24,14,51,23.00
2005,08,24,14,52,23.10
2005,08,24,14,53,23.20
2005,08,24,14,54,23.20
2005,08,24,14,55,23.30
2005,08,24,14,56,23.30
2005,08,24,14,57,23.30
2005,08,24,14,58,23.30
2005,08,24,14,59,23.30
2005,08,24,15,00,23.30
2005,08,24,15,01,23.30
2005,08,24,15,02,23.20
2005,08,24,15,03,23.20
2005,08,24,15,04,23.20
2005,08,24,15,05,23.30
2005,08,24,15,06,23.30
2005,08,24,15,07,23.30
2005,08,24,15,08,23.30
2005,08,24,15,09,23.30
2005,08,24,15,10,23.30
2005,08,24,15,11,23.30
2005,08,24,15,12,23.30
2005,08,24,15,13,23.30
2005,08,24,15,14,23.30
2005,08,24,15,15,23.30
2005,08,24,15,16,23.30
2005,08,24,15,17,23.30
2005,08,24,15,18,23.30
2005,08,24,15,19,23.30
2005,08,24,15,20,23.40
2005,08,24,15,21,23.60
2005,08,24,15,22,23.70
2005,08,24,15,23,23.70
2005,08,24,15,24,23.70
2005,08,24,15,25,23.70
2005,08,24,15,26,23.70
2005,08,24,15,27,23.70
2005,08,24,15,28,23.70
2005,08,24,15,29,23.70
2005,08,24,15,30,23.70
2005,08,24,15,31,23.70
2005,08,24,15,32,23.70
2005,08,24,15,33,23.70
2005,08,24,15,34,23.70
2005,08,24,15,35,23.70
2005,08,24,15,36,23.70
2005,08,24,15,37,23.70
2005,08,24,15,38,23.70
2005,08,24,15,39,23.70
2005,08,24,15,40,23.70
2005,08,24,15,41,23.70
2005,08,24,15,42,23.70
2005,08,24,15,43,23.70
2005,08,24,15,44,23.70
2005,08,24,15,45,23.70
2005,08,24,15,46,23.70
2005,08,24,15,47,23.80
2005,08,24,15,48,23.80
2005,08,24,15,49,23.80
2005,08,24,15,50,23.80
2005,08,24,15,51,23.80
2005,08,24,15,52,23.80
2005,08,24,15,53,23.80
2005,08,24,15,54,23.80
2005,08,24,15,55,23.80
2005,08,24,15,56,23.80
2005,08,24,15,57,23.80
2005,08,24,15,58,23.80
2005,08,24,15,59,23.80
2005,08,24,16,00,23.90
2005,08,24,16,01,24.00
2005,08,24,16,02,24.10
2005,08,24,16,03,24.20
2005,08,24,16,04,24.20
2005,08,24,16,05,24.20
2005,08,24,16,06,24.30
2005,08,24,16,07,24.30
2005,08,24,16,08,24.30
2005,08,24,16,09,24.30
2005,08,24,16,10,24.30
2005,08,24,16,11,24.40
2005,08,24,16,12,24.40
2005,08,24,16,13,24.40
2005,08,24,16,14,24.40
2005,08,24,16,15,24.40
2005,08,24,16,16,24.50
2005,08,24,16,17,24.50
2005,08,24,16,18,24.40
2005,08,24,16,19,24.40
2005,08,24,16,20,24.40
2005,08,24,16,21,24.40
2005,08,24,16,22,24.40
2005,08,24,16,23,24.40
2005,08,24,16,24,24.40
2005,08,24,16,25,24.50
2005,08,24,16,26,24.60
2005,08,24,16,27,24.70
2005,08,24,16,28,24.80
2005,08,24,16,29,24.80
2005,08,24,16,30,24.80
2005,08,24,16,31,24.80
2005,08,24,16,32,24.80
2005,08,24,16,33,24.80
2005,08,24,16,34,24.70
2005,08,24,16,35,24.70
2005,08,24,16,36,24.70
2005,08,24,16,37,24.70
2005,08,24,16,38,24.70
2005,08,24,16,39,24.80
2005,08,24,16,40,24.80
2005,08,24,16,41,24.80
2005,08,24,16,42,24.90
2005,08,24,16,43,24.90
2005,08,24,16,44,24.90
2005,08,24,16,45,24.90
2005,08,24,16,46,24.90
2005,08,24,16,47,24.80
2005,08,24,16,48,24.80
2005,08,24,16,49,24.70
2005,08,24,16,50,24.70
2005,08,24,16,51,24.70
2005,08,24,16,52,24.60
2005,08,24,16,53,24.50
2005,08,24,16,54,24.50
2005,08,24,16,55,24.50
2005,08,24,16,56,24.60
2005,08,24,16,57,24.60
2005,08,24,16,58,24.70
2005,08,24,16,59,24.70
2005,08,24,17,00,24.70
2005,08,24,17,01,24.70
2005,08,24,17,02,24.70
2005,08,24,17,03,24.60
2005,08,24,17,04,24.60
2005,08,24,17,05,24.70
2005,08,24,17,06,24.70
2005,08,24,17,07,24.70
2005,08,24,17,08,24.70
2005,08,24,17,09,24.70
2005,08,24,17,10,24.70
2005,08,24,17,11,24.70
2005,08,24,17,12,24.70
2005,08,24,17,13,24.70
2005,08,24,17,14,24.60
2005,08,24,17,15,24.60
2005,08,24,17,16,24.60
2005,08,24,17,17,24.50
2005,08,24,17,18,24.50
2005,08,24,17,19,24.50